GW1531 Weather Reports


Display with metric or nautical units.
time (UTC)temp
F
wind
direction
speed
MPH
gust
MPH
rain 1hr
in
rain 24hr
in
rain mn
in
humidity
%
barometer
mb
20260504184605 63 136 10.0 17.0 0.00 0.00 0.00 68 1010.3
20260504183053 64 184 9.0 18.0 0.00 0.00 0.00 68 1010.6
20260504181549 64 165 5.0 17.0 0.00 0.00 0.00 70 1010.6
20260504180055 64 119 7.0 16.0 0.00 0.00 0.00 70 1010.9
20260504174601 64 135 5.0 15.0 0.00 0.00 0.00 70 1011.2
20260504173057 64 175 8.0 17.0 0.00 0.00 0.00 69 1011.2
20260504171552 65 175 7.0 16.0 0.00 0.00 0.00 67 1011.3
20260504140106 63 195 4.0 15.0 0.00 0.00 0.00 61 1012.5
20260504110116 49 145 3.0 7.0 0.00 0.00 0.00 76 1013.7
20260504090117 49 177 2.0 9.0 0.00 0.00 0.00 70 1013.5
20260504081555 49 140 2.0 6.0 0.00 0.00 0.00 69 1013.5
20260504044601 49 196 1.0 6.0 0.00 0.00 0.00 58 1013.0
20260504043054 49 158 1.0 5.0 0.00 0.00 0.00 58 1012.8
20260504041556 49 0 1.0 6.0 0.00 0.00 0.00 57 1012.6
20260504040103 49 149 1.0 4.0 0.00 0.00 0.00 57 1012.6
20260504034603 49 219 1.0 4.0 0.00 0.00 0.00 56 1012.4
20260504033114 49 180 0.0 4.0 0.00 0.00 0.00 55 1012.4
20260504031559 49 134 0.0 2.0 0.00 0.00 0.00 54 1012.3
20260504030054 49 0 0.0 5.0 0.00 0.00 0.00 55 1012.2
20260504024551 49 142 0.0 5.0 0.00 0.00 0.00 55 1012.4
20260504023057 49 0 0.0 3.0 0.00 0.00 0.00 55 1012.3
20260504021556 48 165 0.0 2.0 0.00 0.00 0.00 57 1012.3
20260504020112 48 0 0.0 2.0 0.00 0.00 0.00 55 1012.3
20260504014603 49 0 0.0 2.0 0.00 0.00 0.00 55 1012.2
20260504013057 48 0 0.0 2.0 0.00 0.00 0.00 56 1012.1
20260504011559 48 0 0.0 2.0 0.00 0.00 0.00 57 1012.0
20260504010101 48 0 0.0 0.0 0.00 0.00 0.00 57 1011.6
20260504004604 50 0 0.0 0.0 0.00 0.00 0.00 56 1011.4
20260504003055 51 141 0.0 2.0 0.00 0.00 0.00 52 1011.3
20260504001612 53 0 0.0 1.0 0.00 0.00 0.00 49 1011.3
20260504000056 54 123 0.0 3.0 0.00 0.00 0.00 45 1011.0
20260503234556 56 0 0.0 3.0 0.00 0.00 0.00 44 1010.9
20260503233052 57 184 0.0 4.0 0.00 0.00 0.00 42 1010.8
20260503231556 58 234 3.0 10.0 0.00 0.00 0.00 37 1010.7
20260503230055 59 241 3.0 9.0 0.00 0.00 0.00 37 1010.7
20260503224549 59 226 4.0 13.0 0.00 0.00 0.00 36 1010.8
20260503223051 59 207 2.0 11.0 0.00 0.00 0.00 36 1010.5
20260503221556 59 226 8.0 16.0 0.00 0.00 0.00 35 1010.4
20260503220105 59 360 4.0 15.0 0.00 0.00 0.00 35 1010.2
20260503214549 59 273 6.0 16.0 0.00 0.00 0.00 34 1010.2
20260503213050 59 227 6.0 13.0 0.00 0.00 0.00 34 1010.1
20260503211605 59 233 7.0 15.0 0.00 0.00 0.00 34 1010.1
20260503210055 59 235 5.0 16.0 0.00 0.00 0.00 34 1010.1
20260503204555 59 238 7.0 15.0 0.00 0.00 0.00 36 1010.2
20260503203050 59 214 4.0 12.0 0.00 0.00 0.00 36 1009.9
20260503201551 59 248 8.0 16.0 0.00 0.00 0.00 36 1009.9
20260503200049 58 277 5.0 18.0 0.00 0.00 0.00 36 1009.9
20260503194555 58 265 10.0 17.0 0.00 0.00 0.00 36 1010.2
20260503193057 58 209 4.0 12.0 0.00 0.00 0.00 40 1010.3
20260503191551 58 277 6.0 12.0 0.00 0.00 0.00 40 1010.4
20260503190054 57 273 8.0 21.0 0.00 0.00 0.00 40 1010.6